CBERS 1 DEB

Satellite information

Favourite Embed

Satellite Type and Status

DEBRISIN ORBIT

Key statistics

Satellite CBERS 1 DEB at a glance.

Uptime

9557

Days in orbit

Revolutions

≈ 14.6

Per day

Orbit

SSO

Sun Synchronous Orbit

Inclination

98.7

Latest

Satellite identification and parameters

Extended collection of information and parameters for CBERS 1 DEB.

Object identification

Identified? True

Debris? True

Object name: CBERS 1 DEB

International designator: 1999-057NY

Object number (NORAD): 30789

Object ID (CCSDS): 30789

Country: PEOPLES REPUBLIC OF CHINA/BRAZIL (CHBZ)

Current information (Y/N): Y

RCS size: SMALL

Orbital parameters

Period: 98.774 minutes

Inclination: 98.6508 deg

SMA: 7078.173 km

Apoapsis: 703.345 km

Periapsis: 696.73 km

RAAN: 21.4167 deg

Eccentricy: 0.0004673

Argument of periapsis: 288.3055 deg

Mean anomaly: 140.114 deg

Mean motion: 14.57877542 rev/day

Mean motion (dot): 0.00005884 rev/day2

B* drag term: 0.0012941 1/REarth

Two-line elements (TLE)

Creation date: Dec. 12, 2025, 7:26 a.m.

Reference frame: TEME

Reference center: EARTH

Epoch: Dec. 12, 2025, 12:27 a.m. UTC

TLE line 0: 0 CBERS 1 DEB

TLE line 1: 1 30789U 99057NY 25346.01933492 .00005884 00000-0 12941-2 0 9992

TLE line 2: 2 30789 98.6508 21.4167 0004673 288.3055 140.1140 14.57877542989015

Live tracking on map

Real-time ground track for satellite CBERS 1 DEB.

In-orbit conjunctions

A list of the most updated potential collisions computed for object CBERS 1 DEB.

Target Orbit TCA Probability of collision Miss distance Type
CZ-6A DEB LEO 2024-12-03 18:44:12 0.0001070477 774.0 (m) DEBRIS
OV2-1 LEO 2024-11-10 22:41:06 0.0002439378 437.0 (m) PAYLOAD
NOAA 16 DEB SSO 2024-08-14 16:41:12 0.0001063857 265.0 (m) DEBRIS
RUBIN 3/SL-8 SSO 2024-07-11 20:58:45 0.0002081891 508.0 (m) PAYLOAD

Associated space launch

The CBERS (China Brazil Earth Resources Satellite) or ZY 1 (Zi Yuan) satellites are designed for global coverage and include cameras to make optical observations and a data collecting system to gather data on the environment. They are unique systems due to the use of on-board sensors which combine features that are especially designed to resolve the broad range of space and time scales involved in the monitoring and preservation of the ecosystem. They are operated jointly by the China Centre for Resources Satellite Data and Application (CRESDA) and the Brazilian INPE (Instituto Nacional de Pesquisas Espaciais, National Institute of Space Research).

CBERS 1 DEB was lifted into orbit during the mission ‘Long March 4B | Zi Yuan 1-1’, on board a Long March 4B space rocket.

The launch took place on Oct. 14, 1999, 3:15 a.m. from Launch Complex 7.

For more information about the launch, click the button.

Launch to space Long March 4B | Zi Yuan 1-1
Long March 4B | Zi Yuan 1-1

Agency: N/A

Status: Launch Successful

Launch date: Oct. 14, 1999, 3:15 a.m. UTC

Rocket: Long March 4B

Launch pad: Launch Complex 7

Location: Taiyuan Satellite Launch Center, People's Republic of China

...

Latest news about this satellite

There are no fresh news available about this satellite. Check back as we update our databases every day.


Newsletter sign-up

Weekly statistics, charts and insights to help you stay on top of the space industry.